Weather History for Stuttgart, AR

Change the Weather History Date:

Wednesday, April 17, 2013

  Actual Average Record
Temperature  
Mean Temperature 76 °F -  
Max Temperature 84 °F 71 °F 93 °F (2006)
Min Temperature 69 °F 52 °F 39 °F (1999)
Cooling Degree Days 12    
Growing Degree Days 26 (Base 50)    
Moisture  
Dew Point 66 °F    
Average Humidity 73    
Maximum Humidity 88    
Minimum Humidity 58    
Precipitation  
Precipitation 0.00 in - - ()
Sea Level Pressure  
Sea Level Pressure 29.96 in    
Wind  
Wind Speed 11 mph (SSE)    
Max Wind Speed 24 mph    
Max Gust Speed 29 mph    
Visibility 10 miles    
Events      
Averages and records for this station are not official NWS values.
T = Trace of Precipitation, MM = Missing Value Source: NWS Daily Summary

Daily Weather History Graph

Daily Weather History Graph

Search for Another Location

Airport:

Trip Planner

Search our weather history database for the weather conditions in past years. The results will help you decide how hot, cold, wet, or windy it might be!

Date:

Astronomy

Apr. 17, 2013 Rise Set
Actual Time 6:31 AM CDT 7:40 PM CDT
Civil Twilight 6:05 AM CDT 8:06 PM CDT
Nautical Twilight 5:34 AM CDT 8:37 PM CDT
Astronomical Twilight 5:02 AM CDT 9:09 PM CDT
Moon 11:50 AM CDT (4/17) 1:13 AM CDT (4/17)
Length of Visible Light 14h 00m
Length of Day
13h 08m
Waxing Crescent, 42% of the Moon is Illuminated
Apr 17
Waxing Crescent
Apr 18
First Quarter
Apr 25
Full
May 2
Last Quarter
May 9
New

Hourly Weather History & Observations

Time (CDT) Temp. Heat Index Dew Point Humidity Pressure Visibility Wind Dir Wind Speed Gust Speed Precip Events Conditions
12:15 AM 69.8 °F - 64.4 °F 83% 30.02 in 10.0 mi SE 8.1 mph - N/A   Clear
12:35 AM 69.8 °F - 64.4 °F 83% 30.02 in 10.0 mi SSE 5.8 mph - N/A   Clear
12:55 AM 69.8 °F - 64.4 °F 83% 30.03 in 10.0 mi SSE 6.9 mph - N/A   Clear
1:15 AM 69.8 °F - 64.4 °F 83% 30.03 in 10.0 mi SE 5.8 mph - N/A   Clear
1:35 AM 69.8 °F - 64.4 °F 83% 30.02 in 10.0 mi SE 6.9 mph - N/A   Clear
1:55 AM 69.8 °F - 64.4 °F 83% 30.02 in 10.0 mi SE 6.9 mph - N/A   Clear
2:15 AM 69.8 °F - 64.4 °F 83% 30.02 in 10.0 mi SE 6.9 mph - N/A   Clear
2:35 AM 69.8 °F - 64.4 °F 83% 30.01 in 10.0 mi SE 6.9 mph - N/A   Clear
2:55 AM 69.8 °F - 64.4 °F 83% 30.01 in 10.0 mi SE 6.9 mph - N/A   Clear
3:15 AM 69.8 °F - 64.4 °F 83% 30.01 in 10.0 mi SSE 6.9 mph - N/A   Clear
3:35 AM 69.8 °F - 64.4 °F 83% 30.01 in 10.0 mi SSE 6.9 mph - N/A   Partly Cloudy
3:55 AM 69.8 °F - 64.4 °F 83% 30.01 in 10.0 mi SSE 6.9 mph - N/A   Mostly Cloudy
4:15 AM 69.8 °F - 64.4 °F 83% 30.02 in 10.0 mi SSE 5.8 mph - N/A   Overcast
4:35 AM 69.8 °F - 64.4 °F 83% 30.02 in 10.0 mi SSE 6.9 mph - N/A   Overcast
4:55 AM 69.8 °F - 64.4 °F 83% 30.02 in 10.0 mi SE 4.6 mph - N/A   Overcast
5:15 AM 69.8 °F - 64.4 °F 83% 30.03 in 10.0 mi SE 4.6 mph - N/A   Overcast
5:35 AM 69.8 °F - 64.4 °F 83% 30.03 in 10.0 mi SE 5.8 mph - N/A   Overcast
5:55 AM 69.8 °F - 64.4 °F 83% 30.03 in 10.0 mi SE 6.9 mph - N/A   Scattered Clouds
6:15 AM 69.8 °F - 64.4 °F 83% 30.04 in 8.0 mi SE 6.9 mph - N/A   Clear
6:35 AM 69.8 °F - 64.4 °F 83% 30.04 in 8.0 mi SE 8.1 mph - N/A   Mostly Cloudy
6:55 AM 69.8 °F - 66.2 °F 88% 30.04 in 6.0 mi SE 6.9 mph - N/A   Mostly Cloudy
7:15 AM 69.8 °F - 66.2 °F 88% 30.05 in 5.0 mi SE 5.8 mph - N/A   Mostly Cloudy
7:35 AM 69.8 °F - 66.2 °F 88% 30.05 in 5.0 mi SE 6.9 mph - N/A   Overcast
7:55 AM 71.6 °F - 66.2 °F 83% 30.06 in 6.0 mi SSE 10.4 mph - N/A   Overcast
8:15 AM 71.6 °F - 68.0 °F 88% 30.05 in 8.0 mi SSE 12.7 mph 17.3 mph N/A   Mostly Cloudy
8:35 AM 73.4 °F - 68.0 °F 83% 30.05 in 9.0 mi SSE 12.7 mph 17.3 mph N/A   Mostly Cloudy
9:15 AM 73.4 °F - 68.0 °F 83% 30.04 in 10.0 mi South 15.0 mph - N/A   Overcast
9:35 AM 75.2 °F - 69.8 °F 83% 30.04 in 10.0 mi SSE 16.1 mph - N/A   Mostly Cloudy
9:55 AM 78.8 °F - 69.8 °F 74% 30.04 in 10.0 mi South 19.6 mph 24.2 mph N/A   Mostly Cloudy
10:15 AM 78.8 °F - 69.8 °F 74% 30.04 in 10.0 mi South 20.7 mph - N/A   Mostly Cloudy
10:35 AM 78.8 °F - 69.8 °F 74% 30.03 in 10.0 mi South 19.6 mph - N/A   Mostly Cloudy
10:55 AM 78.8 °F - 69.8 °F 74% 30.03 in 10.0 mi South 17.3 mph - N/A   Mostly Cloudy
11:15 AM 78.8 °F - 69.8 °F 74% 30.04 in 10.0 mi South 17.3 mph - N/A   Mostly Cloudy
11:35 AM 78.8 °F - 68.0 °F 69% 30.02 in 10.0 mi South 16.1 mph - N/A   Mostly Cloudy
11:55 AM 78.8 °F - 68.0 °F 69% 30.02 in 10.0 mi South 16.1 mph - N/A   Scattered Clouds
12:15 PM 80.6 °F 83.2 °F 68.0 °F 65% 30.01 in 10.0 mi South 15.0 mph 20.7 mph N/A   Clear
12:35 PM 80.6 °F 83.2 °F 68.0 °F 65% 30.00 in 10.0 mi South 16.1 mph - N/A   Scattered Clouds
12:55 PM 80.6 °F 83.2 °F 68.0 °F 65% 29.99 in 10.0 mi South 18.4 mph - N/A   Scattered Clouds
1:15 PM 80.6 °F 83.2 °F 68.0 °F 65% 29.99 in 10.0 mi South 15.0 mph - N/A   Mostly Cloudy
1:35 PM 82.4 °F 86.3 °F 69.8 °F 66% 29.97 in 10.0 mi SSE 18.4 mph - N/A   Scattered Clouds
1:55 PM 82.4 °F 86.3 °F 69.8 °F 66% 29.96 in 10.0 mi SSE 19.6 mph - N/A   Mostly Cloudy
2:15 PM 84.2 °F 88.4 °F 69.8 °F 62% 29.95 in 10.0 mi South 19.6 mph - N/A   Scattered Clouds
2:35 PM 84.2 °F 87.3 °F 68.0 °F 58% 29.94 in 10.0 mi SSE 23.0 mph 28.8 mph N/A   Mostly Cloudy
2:55 PM 84.2 °F 88.4 °F 69.8 °F 62% 29.94 in 10.0 mi SSE 19.6 mph 27.6 mph N/A   Mostly Cloudy
3:35 PM 82.4 °F 86.3 °F 69.8 °F 66% 29.91 in 10.0 mi SSE 17.3 mph 27.6 mph N/A   Mostly Cloudy
3:55 PM 82.4 °F 85.4 °F 68.0 °F 62% 29.91 in 10.0 mi South 24.2 mph 28.8 mph N/A   Mostly Cloudy
4:15 PM 82.4 °F 85.4 °F 68.0 °F 62% 29.90 in 10.0 mi SSE 20.7 mph 26.5 mph N/A   Mostly Cloudy
4:35 PM 82.4 °F 85.4 °F 68.0 °F 62% 29.90 in 10.0 mi SSE 20.7 mph 27.6 mph N/A   Mostly Cloudy
4:55 PM 82.4 °F 85.4 °F 68.0 °F 62% 29.89 in 10.0 mi South 23.0 mph 27.6 mph N/A   Mostly Cloudy
5:15 PM 82.4 °F 85.4 °F 68.0 °F 62% 29.89 in 10.0 mi SSE 18.4 mph 23.0 mph N/A   Partly Cloudy
5:35 PM 82.4 °F 85.4 °F 68.0 °F 62% 29.88 in 10.0 mi SSE 17.3 mph 25.3 mph N/A   Partly Cloudy
5:55 PM 82.4 °F 85.4 °F 68.0 °F 62% 29.87 in 10.0 mi SE 15.0 mph 21.9 mph N/A   Partly Cloudy
6:15 PM 80.6 °F 83.2 °F 68.0 °F 65% 29.86 in 10.0 mi SSE 13.8 mph - N/A   Clear
6:35 PM 80.6 °F 82.7 °F 66.2 °F 61% 29.85 in 10.0 mi SE 13.8 mph 19.6 mph N/A   Clear
6:55 PM 80.6 °F 82.7 °F 66.2 °F 61% 29.84 in 10.0 mi SE 12.7 mph - N/A   Clear
7:15 PM 78.8 °F - 66.2 °F 65% 29.84 in 10.0 mi SSE 11.5 mph - N/A   Clear
7:35 PM 78.8 °F - 66.2 °F 65% 29.84 in 10.0 mi SSE 10.4 mph - N/A   Mostly Cloudy
7:55 PM 78.8 °F - 66.2 °F 65% 29.84 in 10.0 mi SSE 9.2 mph - N/A   Scattered Clouds
8:15 PM 77.0 °F - 66.2 °F 69% 29.83 in 10.0 mi SSE 11.5 mph - N/A   Clear
8:35 PM 77.0 °F - 66.2 °F 69% 29.83 in 10.0 mi SSE 10.4 mph - N/A   Clear
8:55 PM 75.2 °F - 64.4 °F 69% 29.83 in 10.0 mi SSE 11.5 mph - N/A   Clear
9:15 PM 75.2 °F - 64.4 °F 69% 29.83 in 9.0 mi SSE 13.8 mph - N/A   Clear
9:35 PM 77.0 °F - 64.4 °F 65% 29.83 in 10.0 mi SSE 12.7 mph - N/A   Clear
9:55 PM 77.0 °F - 64.4 °F 65% 29.83 in 10.0 mi SSE 15.0 mph - N/A   Clear
10:15 PM 77.0 °F - 64.4 °F 65% 29.83 in 10.0 mi SSE 15.0 mph - N/A   Clear
10:35 PM 77.0 °F - 64.4 °F 65% 29.83 in 10.0 mi SSE 12.7 mph - N/A   Clear
10:55 PM 75.2 °F - 64.4 °F 69% 29.83 in 10.0 mi SSE 12.7 mph - N/A   Clear
11:15 PM 77.0 °F - 64.4 °F 65% 29.82 in 10.0 mi SSE 15.0 mph - N/A   Clear
11:35 PM 75.2 °F - 64.4 °F 69% 29.82 in 10.0 mi SSE 13.8 mph - N/A   Clear
11:55 PM 75.2 °F - 64.4 °F 69% 29.82 in 10.0 mi SSE 18.4 mph 23.0 mph N/A   Clear